TimeMST,TemperatureF,Dew PointF,Humidity,Sea Level PressureIn,VisibilityMPH,Wind Direction,Wind SpeedMPH,Gust SpeedMPH,PrecipitationIn,Events,Conditions,WindDirDegrees,DateUTC
12:53 AM,30.9,19.0,61,30.16,10.0,SW,6.9,-,N/A,,Clear,230,2013-01-07 07:53:00
1:53 AM,32.0,19.0,59,30.15,10.0,SSW,6.9,-,N/A,,Clear,210,2013-01-07 08:53:00
2:53 AM,32.0,19.9,61,30.14,10.0,SW,8.1,-,N/A,,Clear,220,2013-01-07 09:53:00
3:53 AM,30.0,19.0,64,30.12,10.0,SSW,5.8,-,N/A,,Clear,210,2013-01-07 10:53:00
4:53 AM,30.0,21.0,69,30.11,10.0,Calm,Calm,-,N/A,,Clear,0,2013-01-07 11:53:00
5:53 AM,28.9,19.9,69,30.14,10.0,Calm,Calm,-,N/A,,Clear,0,2013-01-07 12:53:00
6:53 AM,27.0,19.9,75,30.15,10.0,Calm,Calm,-,N/A,,Clear,0,2013-01-07 13:53:00
7:53 AM,30.0,19.9,66,30.17,10.0,Calm,Calm,-,N/A,,Clear,0,2013-01-07 14:53:00
8:53 AM,33.1,21.9,64,30.15,10.0,SW,4.6,-,N/A,,Clear,230,2013-01-07 15:53:00
9:53 AM,36.0,23.0,59,30.14,10.0,West,3.5,-,N/A,,Clear,270,2013-01-07 16:53:00
10:53 AM,41.0,21.9,47,30.10,10.0,Variable,3.5,-,N/A,,Clear,0,2013-01-07 17:53:00
12:53 PM,48.9,21.9,35,29.98,10.0,WSW,5.8,-,N/A,,Clear,240,2013-01-07 19:53:00
1:53 PM,51.1,19.9,29,29.94,10.0,South,8.1,-,N/A,,Clear,190,2013-01-07 20:53:00
2:53 PM,52.0,19.9,28,29.93,10.0,SW,5.8,-,N/A,,Clear,220,2013-01-07 21:53:00
3:53 PM,52.0,21.9,31,29.94,10.0,South,10.4,-,N/A,,Clear,170,2013-01-07 22:53:00
4:53 PM,46.0,21.9,39,29.96,10.0,SSE,8.1,-,N/A,,Clear,160,2013-01-07 23:53:00
5:53 PM,42.1,21.9,45,29.97,10.0,South,4.6,-,N/A,,Clear,170,2013-01-08 00:53:00
6:53 PM,39.9,21.9,49,29.98,10.0,Calm,Calm,-,N/A,,Clear,0,2013-01-08 01:53:00
7:53 PM,36.0,21.0,55,29.99,10.0,SSW,8.1,-,N/A,,Clear,200,2013-01-08 02:53:00
8:53 PM,32.0,21.0,64,29.98,10.0,SW,8.1,-,N/A,,Clear,220,2013-01-08 03:53:00
9:53 PM,32.0,21.9,66,29.96,10.0,WSW,5.8,-,N/A,,Clear,240,2013-01-08 04:53:00
10:53 PM,35.1,23.0,61,29.94,10.0,WSW,12.7,-,N/A,,Clear,240,2013-01-08 05:53:00
11:53 PM,34.0,23.0,64,29.91,10.0,SW,9.2,-,N/A,,Clear,230,2013-01-08 06:53:00